Terminal Aerodrome Forecast
Issued by NWS

Home | Current Version | Previous Version | Text Only | Print | Product List | Glossary On
Versions: 1 2 3 4 5 6 7 8 9 10 11 12 13 14 15 16 17 18 19 20 21 22 23 24 25
838
FTUS46 KMTR 271440 AAA
TAFSFO
TAF AMD
KSFO 271440Z 2715/2818 27012KT P6SM FEW010 BKN200
     FM271600 28014G24KT P6SM FEW007 FEW012 BKN200
     FM272200 28018G28KT P6SM FEW020 SCT250
     FM280400 28014KT P6SM FEW015 SCT250
     FM280900 28010KT P6SM FEW015 SCT250
     FM281500 30006KT P6SM FEW015 SCT250=

USA.gov is the U.S. government's official web portal to all federal, state and local government web resources and services.